^^
Datos históricos de la estación: Murcia-Puente Tocinos
Diario Informe para Junio 13, 2019 Unidades:  Métrico    Inglés   Ambas
Diario Semanal Mensual Anual Configurable
  Máximo: Mínimo: Media:
Temperatura: 24.7 °C 19.1 °C 21.7 °C
Punto de rocio: 17.1 °C 12.6 °C 14.9 °C
Humedad: 87% 48% 67%
Velocidad viento: 22.5km/h 0.0km/h 11.8km/h
Racha viento: 40.2km/h - -
Viento- - ENE
Presión: 1012.0 hPa 1007.2 hPa -
Precipitación: 0.0 mm    
Historical Graphs
 
 
Tabla de datos para Junio 13, 2019
Hora Temperatura Punto de rocio Presión Viento Velocidad viento Racha viento Humedad Intensidad lluvia(por hora) Nubes
00:00 19.6 °C 16.1 °C 1011.9 hPa NE 8.0 km/h 11.3 km/h 80% 0.0 mm CLR
00:05 19.6 °C 16.1 °C 1012.0 hPa NE 8.0 km/h 14.5 km/h 80% 0.0 mm CLR
00:10 19.6 °C 16.1 °C 1012.0 hPa NNE 7.6 km/h 14.8 km/h 80% 0.0 mm CLR
00:15 19.6 °C 16.1 °C 1012.0 hPa NNE 8.0 km/h 16.1 km/h 80% 0.0 mm CLR
00:20 19.7 °C 16.2 °C 1012.0 hPa NE 9.5 km/h 15.6 km/h 80% 0.0 mm CLR
00:25 19.7 °C 16.2 °C 1012.0 hPa NNE 9.7 km/h 20.9 km/h 80% 0.0 mm CLR
00:30 19.7 °C 16.2 °C 1012.0 hPa NNE 11.3 km/h 19.3 km/h 80% 0.0 mm CLR
00:35 19.7 °C 16.2 °C 1011.9 hPa NNE 11.3 km/h 20.9 km/h 80% 0.0 mm CLR
00:40 19.7 °C 16.2 °C 1011.9 hPa ENE 12.2 km/h 18.5 km/h 80% 0.0 mm CLR
00:45 19.7 °C 16.2 °C 1011.9 hPa NE 12.9 km/h 16.1 km/h 80% 0.0 mm CLR
00:50 19.7 °C 16.3 °C 1011.8 hPa NNE 11.1 km/h 14.8 km/h 81% 0.0 mm CLR
00:55 19.7 °C 16.3 °C 1011.8 hPa NE 11.3 km/h 16.1 km/h 81% 0.0 mm CLR
00:59 19.6 °C 16.2 °C 1011.8 hPa NE 10.3 km/h 13.0 km/h 81% 0.0 mm CLR
01:05 19.6 °C 16.2 °C 1011.8 hPa NNE 11.3 km/h 12.9 km/h 81% 0.0 mm CLR
01:10 19.5 °C 16.3 °C 1011.8 hPa NE 8.7 km/h 13.0 km/h 82% 0.0 mm CLR
01:15 19.4 °C 16.3 °C 1011.8 hPa NE 9.7 km/h 14.5 km/h 82% 0.0 mm CLR
01:20 19.4 °C 16.2 °C 1011.8 hPa NE 9.7 km/h 14.5 km/h 82% 0.0 mm CLR
01:25 19.4 °C 16.2 °C 1011.8 hPa NE 9.7 km/h 12.9 km/h 82% 0.0 mm CLR
01:30 19.4 °C 16.2 °C 1011.8 hPa NE 8.7 km/h 11.1 km/h 82% 0.0 mm CLR
01:35 19.4 °C 16.4 °C 1011.7 hPa NE 9.7 km/h 14.5 km/h 83% 0.0 mm CLR
01:40 19.4 °C 16.4 °C 1011.7 hPa NE 9.7 km/h 19.3 km/h 83% 0.0 mm CLR
01:45 19.4 °C 16.4 °C 1011.7 hPa NE 9.7 km/h 16.1 km/h 83% 0.0 mm CLR
01:50 19.4 °C 16.4 °C 1011.6 hPa East 8.7 km/h 11.1 km/h 83% 0.0 mm CLR
01:55 19.5 °C 16.6 °C 1011.6 hPa NE 9.7 km/h 11.3 km/h 83% 0.0 mm CLR
02:00 19.5 °C 16.6 °C 1011.6 hPa NE 8.0 km/h 17.7 km/h 83% 0.0 mm CLR
02:05 19.5 °C 16.6 °C 1011.4 hPa NNE 8.0 km/h 17.7 km/h 83% 0.0 mm CLR
02:10 19.6 °C 16.6 °C 1011.4 hPa ENE 10.3 km/h 22.2 km/h 83% 0.0 mm CLR
02:15 19.5 °C 16.6 °C 1011.4 hPa ENE 10.3 km/h 13.7 km/h 83% 0.0 mm CLR
02:20 19.5 °C 16.6 °C 1011.2 hPa NE 11.3 km/h 19.3 km/h 83% 0.0 mm CLR
02:25 19.5 °C 16.6 °C 1011.2 hPa NE 11.3 km/h 14.5 km/h 83% 0.0 mm CLR
02:30 19.4 °C 16.4 °C 1011.2 hPa ENE 9.5 km/h 16.7 km/h 83% 0.0 mm CLR
02:35 19.4 °C 16.6 °C 1011.1 hPa NE 9.7 km/h 14.5 km/h 84% 0.0 mm CLR
02:40 19.4 °C 16.6 °C 1011.1 hPa NNE 8.7 km/h 13.0 km/h 84% 0.0 mm CLR
02:45 19.4 °C 16.6 °C 1011.1 hPa NE 9.7 km/h 16.1 km/h 84% 0.0 mm CLR
02:50 19.4 °C 16.6 °C 1010.7 hPa NE 9.7 km/h 12.9 km/h 84% 0.0 mm CLR
02:55 19.4 °C 16.6 °C 1010.7 hPa NE 9.7 km/h 12.9 km/h 84% 0.0 mm CLR
03:00 19.3 °C 16.6 °C 1010.7 hPa NNE 8.0 km/h 11.3 km/h 84% 0.0 mm CLR
03:05 19.3 °C 16.5 °C 1010.6 hPa NNE 8.0 km/h 9.7 km/h 84% 0.0 mm CLR
03:10 19.4 °C 16.6 °C 1010.6 hPa NNE 4.8 km/h 9.7 km/h 84% 0.0 mm CLR
03:15 19.4 °C 16.6 °C 1010.6 hPa NNE 4.8 km/h 9.7 km/h 84% 0.0 mm CLR
03:20 19.4 °C 16.6 °C 1010.5 hPa NE 5.0 km/h 3.7 km/h 84% 0.0 mm CLR
03:25 19.4 °C 16.6 °C 1010.5 hPa NNE 4.8 km/h 4.8 km/h 84% 0.0 mm CLR
03:30 19.4 °C 16.4 °C 1010.5 hPa NNW 2.3 km/h 1.9 km/h 83% 0.0 mm CLR
03:35 19.5 °C 16.6 °C 1010.4 hPa NNW 1.6 km/h 8.0 km/h 83% 0.0 mm CLR
03:40 19.5 °C 16.6 °C 1010.4 hPa Calm     83% 0.0 mm CLR
03:45 19.6 °C 16.6 °C 1010.4 hPa Calm   11.3 km/h 83% 0.0 mm CLR
03:50 19.6 °C 16.6 °C 1010.6 hPa East 3.2 km/h 8.0 km/h 83% 0.0 mm CLR
03:55 19.6 °C 16.6 °C 1010.6 hPa SSW 3.9 km/h 3.7 km/h 83% 0.0 mm CLR
04:00 19.7 °C 16.7 °C 1010.6 hPa South 3.2 km/h 3.2 km/h 83% 0.0 mm CLR
04:05 19.7 °C 16.7 °C 1010.3 hPa SW 3.2 km/h   83% 0.0 mm CLR
04:10 19.7 °C 16.7 °C 1010.3 hPa Calm   5.6 km/h 83% 0.0 mm CLR
04:15 19.7 °C 16.7 °C 1010.3 hPa Calm   7.4 km/h 83% 0.0 mm CLR
04:20 19.7 °C 16.6 °C 1010.2 hPa West 4.7 km/h 7.4 km/h 82% 0.0 mm CLR
04:25 19.7 °C 16.3 °C 1010.2 hPa WNW 3.2 km/h 8.0 km/h 81% 0.0 mm CLR
04:30 19.7 °C 16.3 °C 1010.2 hPa NW 4.8 km/h 9.7 km/h 81% 0.0 mm CLR
04:35 19.7 °C 16.3 °C 1009.7 hPa NW 4.8 km/h 9.7 km/h 81% 0.0 mm CLR
04:40 19.7 °C 16.3 °C 1009.7 hPa NW 5.8 km/h 7.4 km/h 81% 0.0 mm CLR
04:45 19.7 °C 16.3 °C 1009.7 hPa NW 4.8 km/h 8.0 km/h 81% 0.0 mm CLR
04:50 19.7 °C 16.3 °C 1010.0 hPa NW 4.7 km/h 7.4 km/h 81% 0.0 mm CLR
04:55 19.7 °C 16.3 °C 1010.0 hPa NW 3.2 km/h 9.7 km/h 81% 0.0 mm CLR
05:00 19.7 °C 16.3 °C 1010.0 hPa NNW 3.2 km/h 8.0 km/h 81% 0.0 mm CLR
05:05 19.7 °C 16.3 °C 1009.7 hPa NNW 3.2 km/h 9.7 km/h 81% 0.0 mm CLR
05:10 19.8 °C 16.4 °C 1009.7 hPa NNW 4.7 km/h   81% 0.0 mm CLR
05:15 19.8 °C 16.2 °C 1009.7 hPa NNW 3.2 km/h 8.0 km/h 80% 0.0 mm CLR
05:20 19.8 °C 16.4 °C 1009.7 hPa NNE 3.2 km/h 8.0 km/h 81% 0.0 mm CLR
05:25 19.8 °C 16.4 °C 1009.7 hPa NE 3.2 km/h 8.0 km/h 81% 0.0 mm CLR
05:30 19.8 °C 16.4 °C 1009.7 hPa NE 3.2 km/h 7.4 km/h 81% 0.0 mm CLR
05:35 19.8 °C 16.4 °C 1009.9 hPa NE 3.2 km/h 8.0 km/h 81% 0.0 mm CLR
05:40 19.8 °C 16.4 °C 1009.9 hPa NE 3.2 km/h 8.0 km/h 81% 0.0 mm CLR
05:45 19.8 °C 16.4 °C 1009.9 hPa NE 3.2 km/h 9.7 km/h 81% 0.0 mm CLR
05:50 19.8 °C 16.4 °C 1010.2 hPa NE 4.7 km/h 7.4 km/h 81% 0.0 mm CLR
05:55 19.8 °C 16.4 °C 1010.2 hPa NNE 3.2 km/h 8.0 km/h 81% 0.0 mm CLR
06:00 19.8 °C 16.4 °C 1010.2 hPa NNE 3.2 km/h 8.0 km/h 81% 0.0 mm CLR
06:05 19.8 °C 16.8 °C 1010.3 hPa NNE 3.2 km/h 11.3 km/h 83% 0.0 mm CLR
06:10 19.8 °C 16.8 °C 1010.3 hPa NNE 5.8 km/h 9.3 km/h 83% 0.0 mm CLR
06:15 19.8 °C 16.8 °C 1010.3 hPa NNE 5.8 km/h 9.3 km/h 83% 0.0 mm CLR
06:20 19.7 °C 16.9 °C 1010.2 hPa NE 6.4 km/h 11.1 km/h 84% 0.0 mm CLR
06:25 19.7 °C 17.1 °C 1010.2 hPa NE 8.0 km/h 12.9 km/h 85% 0.0 mm CLR
06:30 19.6 °C 17.0 °C 1010.2 hPa NNE 8.7 km/h 9.5 km/h 85% 0.0 mm CLR
06:35 19.5 °C 17.1 °C 1010.1 hPa NNE 9.7 km/h 14.5 km/h 86% 0.0 mm CLR
06:40 19.4 °C 17.0 °C 1010.1 hPa NE 8.7 km/h 11.1 km/h 86% 0.0 mm CLR
06:45 19.4 °C 17.0 °C 1010.1 hPa ENE 8.7 km/h 11.1 km/h 86% 0.0 mm CLR
06:50 19.3 °C 17.1 °C 1010.3 hPa NE 8.0 km/h 12.9 km/h 87% 0.0 mm CLR
06:55 19.3 °C 17.1 °C 1010.3 hPa NE 8.0 km/h 14.5 km/h 87% 0.0 mm CLR
07:00 19.3 °C 17.1 °C 1010.3 hPa NE 9.7 km/h 14.5 km/h 87% 0.0 mm CLR
07:05 19.2 °C 17.0 °C 1010.3 hPa NE 9.7 km/h 14.5 km/h 87% 0.0 mm CLR
07:10 19.2 °C 17.0 °C 1010.3 hPa NNE 9.5 km/h 16.7 km/h 87% 0.0 mm CLR
07:15 19.2 °C 17.0 °C 1010.3 hPa NE 9.7 km/h 14.5 km/h 87% 0.0 mm CLR
07:20 19.2 °C 17.0 °C 1010.3 hPa ENE 10.0 km/h 16.7 km/h 87% 0.0 mm CLR
07:25 19.1 °C 16.9 °C 1010.3 hPa NE 9.7 km/h 16.1 km/h 87% 0.0 mm CLR
07:30 19.1 °C 16.9 °C 1010.3 hPa NE 11.3 km/h 16.1 km/h 87% 0.0 mm CLR
07:35 19.2 °C 17.0 °C 1010.4 hPa NE 11.3 km/h 16.1 km/h 87% 0.0 mm CLR
07:40 19.2 °C 17.0 °C 1010.4 hPa NE 9.7 km/h 19.3 km/h 87% 0.0 mm CLR
07:45 19.2 °C 17.0 °C 1010.4 hPa NE 9.7 km/h 19.3 km/h 87% 0.0 mm CLR
07:50 19.2 °C 17.0 °C 1010.6 hPa NE 10.0 km/h 18.5 km/h 87% 0.0 mm CLR
07:55 19.2 °C 17.0 °C 1010.6 hPa NE 9.7 km/h 19.3 km/h 87% 0.0 mm CLR
08:00 19.3 °C 17.1 °C 1010.6 hPa NE 9.7 km/h 20.9 km/h 87% 0.0 mm CLR
08:05 19.3 °C 16.9 °C 1010.6 hPa NE 9.7 km/h 20.9 km/h 86% 0.0 mm CLR
08:10 19.4 °C 17.0 °C 1010.6 hPa NNE 11.9 km/h 13.0 km/h 86% 0.0 mm CLR
08:15 19.5 °C 17.1 °C 1010.6 hPa NE 11.3 km/h 14.5 km/h 86% 0.0 mm CLR
08:20 19.6 °C 17.0 °C 1010.7 hPa ENE 10.3 km/h 18.5 km/h 85% 0.0 mm CLR
08:25 19.6 °C 17.0 °C 1010.7 hPa NE 11.3 km/h 22.5 km/h 85% 0.0 mm CLR
08:30 19.6 °C 16.8 °C 1010.7 hPa NE 12.9 km/h 24.1 km/h 84% 0.0 mm CLR
08:35 19.7 °C 16.7 °C 1010.6 hPa NE 12.9 km/h 22.5 km/h 83% 0.0 mm CLR
08:40 19.7 °C 16.8 °C 1010.6 hPa NE 14.5 km/h 22.5 km/h 83% 0.0 mm CLR
08:45 19.8 °C 16.6 °C 1010.6 hPa NE 14.5 km/h 25.7 km/h 82% 0.0 mm CLR
08:50 19.8 °C 16.6 °C 1011.1 hPa NE 12.9 km/h 27.4 km/h 82% 0.0 mm CLR
08:55 19.8 °C 16.6 °C 1011.1 hPa NE 12.9 km/h 22.5 km/h 82% 0.0 mm CLR
09:00 19.9 °C 16.6 °C 1011.1 hPa NE 12.9 km/h 25.7 km/h 81% 0.0 mm CLR
09:05 20.1 °C 16.3 °C 1011.1 hPa NE 12.9 km/h 24.1 km/h 79% 0.0 mm CLR
09:10 20.1 °C 16.3 °C 1011.1 hPa NNE 16.4 km/h 27.8 km/h 79% 0.0 mm CLR
09:15 20.2 °C 16.2 °C 1011.1 hPa NE 16.1 km/h 32.2 km/h 78% 0.0 mm CLR
09:20 20.3 °C 16.1 °C 1010.6 hPa ENE 19.0 km/h 25.9 km/h 77% 0.0 mm CLR
09:25 20.4 °C 16.0 °C 1010.6 hPa NE 19.3 km/h 25.7 km/h 76% 0.0 mm CLR
09:30 20.4 °C 16.0 °C 1010.6 hPa NE 16.1 km/h 27.4 km/h 76% 0.0 mm CLR
09:35 20.4 °C 16.0 °C 1011.1 hPa NE 16.1 km/h 20.9 km/h 76% 0.0 mm CLR
09:40 20.4 °C 16.0 °C 1011.1 hPa NE 12.9 km/h 20.9 km/h 76% 0.0 mm CLR
09:45 20.6 °C 16.0 °C 1011.1 hPa NE 12.9 km/h 17.7 km/h 75% 0.0 mm CLR
09:50 20.7 °C 15.7 °C 1011.4 hPa NNE 9.7 km/h 20.9 km/h 73% 0.0 mm CLR
09:55 20.8 °C 15.6 °C 1011.4 hPa NNE 9.7 km/h 24.1 km/h 72% 0.0 mm CLR
10:00 20.8 °C 15.3 °C 1011.4 hPa NNE 12.9 km/h 24.1 km/h 71% 0.0 mm CLR
10:05 20.8 °C 15.4 °C 1010.9 hPa NE 12.9 km/h 22.5 km/h 71% 0.0 mm CLR
10:10 21.0 °C 15.3 °C 1010.9 hPa NE 12.9 km/h 22.5 km/h 70% 0.0 mm CLR
10:15 21.0 °C 15.3 °C 1010.9 hPa NE 12.9 km/h 25.7 km/h 70% 0.0 mm CLR
10:20 21.1 °C 15.4 °C 1011.1 hPa NE 13.7 km/h 13.0 km/h 70% 0.0 mm CLR
10:25 21.2 °C 15.3 °C 1011.1 hPa NE 12.9 km/h 27.4 km/h 69% 0.0 mm CLR
10:30 21.1 °C 15.2 °C 1011.1 hPa ESE 15.6 km/h 22.2 km/h 69% 0.0 mm CLR
10:35 21.2 °C 15.5 °C 1010.8 hPa NE 14.5 km/h 24.1 km/h 70% 0.0 mm CLR
10:40 21.3 °C 15.6 °C 1010.8 hPa NE 16.1 km/h 24.1 km/h 70% 0.0 mm CLR
10:45 21.4 °C 15.2 °C 1010.8 hPa NE 16.1 km/h 24.1 km/h 68% 0.0 mm CLR
10:50 21.4 °C 15.0 °C 1010.5 hPa NE 14.8 km/h 22.2 km/h 67% 0.0 mm CLR
10:55 21.6 °C 14.7 °C 1010.5 hPa NNE 14.8 km/h 27.8 km/h 65% 0.0 mm CLR
11:00 21.7 °C 14.8 °C 1010.5 hPa NE 16.1 km/h 27.4 km/h 65% 0.0 mm CLR
11:05 21.9 °C 15.0 °C 1010.4 hPa NNE 17.2 km/h 20.4 km/h 65% 0.0 mm CLR
11:10 22.1 °C 15.2 °C 1010.4 hPa ENE 13.7 km/h 16.7 km/h 65% 0.0 mm CLR
11:15 22.1 °C 15.2 °C 1010.4 hPa NE 12.9 km/h 25.7 km/h 65% 0.0 mm CLR
11:20 22.2 °C 15.1 °C 1010.3 hPa NE 13.7 km/h 18.5 km/h 64% 0.0 mm CLR
11:25 22.4 °C 14.5 °C 1010.3 hPa NE 12.9 km/h 24.1 km/h 61% 0.0 mm CLR
11:30 22.6 °C 14.4 °C 1010.3 hPa NE 16.1 km/h 27.4 km/h 60% 0.0 mm CLR
11:35 22.7 °C 14.5 °C 1010.2 hPa NE 16.1 km/h 25.7 km/h 60% 0.0 mm CLR
11:40 22.9 °C 14.2 °C 1010.2 hPa NNE 16.4 km/h 27.8 km/h 58% 0.0 mm CLR
11:45 22.8 °C 14.1 °C 1010.2 hPa NE 16.1 km/h 27.4 km/h 58% 0.0 mm CLR
11:50 22.9 °C 13.9 °C 1010.0 hPa NE 16.1 km/h 27.4 km/h 57% 0.0 mm CLR
11:55 22.9 °C 13.9 °C 1010.0 hPa NNE 16.1 km/h 18.5 km/h 57% 0.0 mm CLR
12:00 23.1 °C 13.6 °C 1010.0 hPa NE 16.1 km/h 30.6 km/h 55% 0.0 mm CLR
12:05 23.4 °C 13.6 °C 1009.9 hPa NE 16.1 km/h 32.2 km/h 54% 0.0 mm CLR
12:10 23.2 °C 13.7 °C 1009.9 hPa NE 19.3 km/h 29.0 km/h 55% 0.0 mm CLR
12:15 23.4 °C 13.6 °C 1009.9 hPa NE 19.3 km/h 32.2 km/h 54% 0.0 mm CLR
12:20 23.4 °C 13.3 °C 1009.8 hPa NE 19.3 km/h 30.6 km/h 53% 0.0 mm CLR
12:25 23.7 °C 13.6 °C 1009.8 hPa NE 19.3 km/h 29.0 km/h 53% 0.0 mm CLR
12:30 23.7 °C 14.1 °C 1009.8 hPa NE 14.5 km/h 24.1 km/h 55% 0.0 mm CLR
12:35 24.1 °C 13.6 °C 1009.6 hPa NE 14.5 km/h 27.4 km/h 52% 0.0 mm CLR
12:40 24.4 °C 13.6 °C 1009.6 hPa NE 13.0 km/h 31.5 km/h 51% 0.0 mm CLR
12:45 24.2 °C 13.4 °C 1009.6 hPa NE 12.9 km/h 32.2 km/h 51% 0.0 mm CLR
12:50 24.2 °C 13.2 °C 1009.5 hPa NE 19.3 km/h 30.6 km/h 50% 0.0 mm CLR
12:55 24.1 °C 13.0 °C 1009.5 hPa NE 19.3 km/h 33.8 km/h 50% 0.0 mm CLR
13:00 24.2 °C 13.1 °C 1009.5 hPa NE 20.9 km/h 38.6 km/h 50% 0.0 mm CLR
13:05 24.1 °C 13.3 °C 1009.5 hPa North 19.8 km/h 24.1 km/h 51% 0.0 mm CLR
13:10 24.3 °C 13.5 °C 1009.5 hPa NNE 18.0 km/h 33.3 km/h 51% 0.0 mm CLR
13:15 24.4 °C 13.0 °C 1009.5 hPa NE 19.3 km/h 33.8 km/h 49% 0.0 mm CLR
13:20 24.2 °C 13.1 °C 1009.4 hPa NE 19.0 km/h 31.5 km/h 50% 0.0 mm CLR
13:25 24.2 °C 13.1 °C 1009.4 hPa NE 19.3 km/h 33.8 km/h 50% 0.0 mm CLR
13:30 24.3 °C 12.6 °C 1009.4 hPa ENE 19.8 km/h 29.6 km/h 48% 0.0 mm CLR
13:35 24.1 °C 13.1 °C 1009.2 hPa NE 20.9 km/h 40.2 km/h 50% 0.0 mm CLR
13:40 24.2 °C 12.8 °C 1009.2 hPa NE 22.0 km/h 35.9 km/h 49% 0.0 mm CLR
13:45 24.1 °C 13.0 °C 1009.2 hPa NE 22.0 km/h 29.6 km/h 50% 0.0 mm CLR
13:50 24.2 °C 12.8 °C 1009.1 hPa NE 22.5 km/h 33.8 km/h 49% 0.0 mm CLR
13:55 24.3 °C 12.9 °C 1009.1 hPa NE 22.5 km/h 33.8 km/h 49% 0.0 mm CLR
14:00 24.2 °C 13.1 °C 1009.1 hPa NE 19.3 km/h 33.8 km/h 50% 0.0 mm CLR
14:05 24.1 °C 13.3 °C 1008.9 hPa NE 19.3 km/h 33.8 km/h 51% 0.0 mm CLR
14:10 24.3 °C 13.5 °C 1008.9 hPa ENE 18.3 km/h 26.2 km/h 51% 0.0 mm CLR
14:15 24.4 °C 13.9 °C 1008.9 hPa ENE 19.3 km/h 29.0 km/h 52% 0.0 mm CLR
14:20 24.4 °C 13.6 °C 1008.8 hPa SE 18.0 km/h 27.8 km/h 51% 0.0 mm CLR
14:25 24.6 °C 13.8 °C 1008.8 hPa ENE 19.3 km/h 27.4 km/h 51% 0.0 mm CLR
14:30 24.6 °C 14.1 °C 1008.8 hPa East 16.4 km/h 24.1 km/h 52% 0.0 mm CLR
14:35 24.4 °C 13.9 °C 1008.7 hPa East 16.1 km/h 37.0 km/h 52% 0.0 mm CLR
14:40 24.3 °C 13.8 °C 1008.7 hPa ENE 20.9 km/h 33.8 km/h 52% 0.0 mm CLR
14:45 24.4 °C 13.6 °C 1008.7 hPa ENE 20.9 km/h 32.2 km/h 51% 0.0 mm CLR
14:50 24.4 °C 13.6 °C 1008.4 hPa NE 16.4 km/h 20.4 km/h 51% 0.0 mm CLR
14:55 24.6 °C 13.4 °C 1008.4 hPa NE 16.1 km/h 25.7 km/h 50% 0.0 mm CLR
15:00 24.6 °C 13.8 °C 1008.4 hPa NE 14.5 km/h 32.2 km/h 51% 0.0 mm CLR
15:05 24.4 °C 13.6 °C 1008.3 hPa ENE 14.5 km/h 33.8 km/h 51% 0.0 mm CLR
15:10 24.4 °C 13.9 °C 1008.3 hPa NNW 18.3 km/h 22.2 km/h 52% 0.0 mm CLR
15:15 24.6 °C 13.5 °C 1008.3 hPa NNE 18.3 km/h 27.8 km/h 50% 0.0 mm CLR
15:20 24.4 °C 13.6 °C 1008.3 hPa NE 14.5 km/h 32.2 km/h 51% 0.0 mm CLR
15:25 24.5 °C 13.4 °C 1008.3 hPa NE 14.5 km/h 30.6 km/h 50% 0.0 mm CLR
15:30 24.6 °C 13.2 °C 1008.3 hPa ENE 19.3 km/h 33.8 km/h 49% 0.0 mm CLR
15:35 24.7 °C 13.6 °C 1008.3 hPa ENE 19.3 km/h 27.4 km/h 50% 0.0 mm CLR
15:40 24.6 °C 13.2 °C 1008.3 hPa East 18.0 km/h 29.6 km/h 49% 0.0 mm CLR
15:45 24.7 °C 13.6 °C 1008.3 hPa ENE 19.3 km/h 30.6 km/h 50% 0.0 mm CLR
15:50 24.7 °C 13.6 °C 1008.2 hPa ENE 14.5 km/h 30.6 km/h 50% 0.0 mm CLR
15:55 24.5 °C 13.7 °C 1008.2 hPa ENE 14.5 km/h 32.2 km/h 51% 0.0 mm CLR
16:00 24.4 °C 13.6 °C 1008.2 hPa ENE 19.3 km/h 25.7 km/h 51% 0.0 mm CLR
16:05 24.6 °C 14.1 °C 1007.9 hPa ENE 19.3 km/h 37.0 km/h 52% 0.0 mm CLR
16:10 24.7 °C 13.9 °C 1007.9 hPa NNE 14.8 km/h 24.1 km/h 51% 0.0 mm CLR
16:15 24.4 °C 13.9 °C 1007.9 hPa ENE 14.5 km/h 35.4 km/h 52% 0.0 mm CLR
16:20 24.4 °C 13.9 °C 1007.9 hPa East 17.2 km/h 24.1 km/h 52% 0.0 mm CLR
16:25 24.3 °C 13.8 °C 1007.9 hPa ENE 16.1 km/h 38.6 km/h 52% 0.0 mm CLR
16:30 24.1 °C 13.9 °C 1007.9 hPa ENE 19.3 km/h 33.8 km/h 53% 0.0 mm CLR
16:35 23.9 °C 13.7 °C 1007.9 hPa ENE 19.3 km/h 40.2 km/h 53% 0.0 mm CLR
16:40 24.0 °C 13.6 °C 1007.9 hPa NE 20.1 km/h 33.3 km/h 52% 0.0 mm CLR
16:45 24.1 °C 13.9 °C 1007.9 hPa ENE 20.9 km/h 33.8 km/h 53% 0.0 mm CLR
16:50 24.1 °C 13.9 °C 1007.7 hPa ENE 20.9 km/h 38.6 km/h 53% 0.0 mm CLR
16:55 24.2 °C 13.7 °C 1007.7 hPa ENE 20.9 km/h 35.4 km/h 52% 0.0 mm CLR
17:00 24.1 °C 13.3 °C 1007.7 hPa ENE 19.3 km/h 35.4 km/h 51% 0.0 mm CLR
17:05 24.2 °C 13.4 °C 1007.6 hPa ENE 19.3 km/h 35.4 km/h 51% 0.0 mm CLR
17:10 24.2 °C 13.4 °C 1007.6 hPa ENE 16.1 km/h 27.4 km/h 51% 0.0 mm CLR
17:15 24.3 °C 13.5 °C 1007.6 hPa ENE 16.1 km/h 29.0 km/h 51% 0.0 mm CLR
17:20 24.1 °C 13.1 °C 1007.6 hPa ENE 19.3 km/h 33.8 km/h 50% 0.0 mm CLR
17:25 24.2 °C 13.1 °C 1007.6 hPa ENE 19.3 km/h 29.0 km/h 50% 0.0 mm CLR
17:30 24.2 °C 13.2 °C 1007.6 hPa ENE 16.1 km/h 35.4 km/h 50% 0.0 mm CLR
17:35 24.2 °C 13.4 °C 1007.5 hPa NE 16.1 km/h 30.6 km/h 51% 0.0 mm CLR
17:40 24.1 °C 13.3 °C 1007.5 hPa NE 19.3 km/h 37.0 km/h 51% 0.0 mm CLR
17:45 24.1 °C 13.3 °C 1007.5 hPa NE 18.3 km/h 22.2 km/h 51% 0.0 mm CLR
17:50 24.1 °C 13.1 °C 1007.5 hPa NE 16.1 km/h 30.6 km/h 50% 0.0 mm CLR
17:55 24.1 °C 13.3 °C 1007.5 hPa NE 16.1 km/h 25.7 km/h 51% 0.0 mm CLR
18:00 24.4 °C 13.3 °C 1007.5 hPa ENE 14.5 km/h 35.4 km/h 50% 0.0 mm CLR
18:05 24.2 °C 13.4 °C 1007.4 hPa ENE 14.5 km/h 32.2 km/h 51% 0.0 mm CLR
18:10 24.3 °C 13.5 °C 1007.4 hPa East 18.0 km/h 20.4 km/h 51% 0.0 mm CLR
18:15 24.3 °C 13.5 °C 1007.4 hPa NE 19.3 km/h 29.0 km/h 51% 0.0 mm CLR
18:20 24.1 °C 13.3 °C 1007.3 hPa NE 14.5 km/h 35.4 km/h 51% 0.0 mm CLR
18:25 24.1 °C 13.3 °C 1007.3 hPa NE 14.5 km/h 33.8 km/h 51% 0.0 mm CLR
18:30 24.0 °C 13.6 °C 1007.3 hPa NNE 17.2 km/h 20.4 km/h 52% 0.0 mm CLR
18:35 24.0 °C 13.6 °C 1007.5 hPa NE 16.1 km/h 27.4 km/h 52% 0.0 mm CLR
18:40 24.0 °C 13.6 °C 1007.5 hPa NE 14.5 km/h 32.2 km/h 52% 0.0 mm CLR
18:45 23.9 °C 13.7 °C 1007.5 hPa NE 14.5 km/h 24.1 km/h 53% 0.0 mm CLR
18:50 24.1 °C 13.9 °C 1007.4 hPa ENE 14.5 km/h 25.7 km/h 53% 0.0 mm CLR
18:55 24.1 °C 13.9 °C 1007.4 hPa ENE 14.5 km/h 29.0 km/h 53% 0.0 mm CLR
19:00 23.8 °C 13.9 °C 1007.4 hPa NE 16.1 km/h 25.7 km/h 54% 0.0 mm CLR
19:05 23.8 °C 13.9 °C 1007.3 hPa ENE 16.1 km/h 27.4 km/h 54% 0.0 mm CLR
19:10 23.9 °C 14.0 °C 1007.3 hPa ESE 14.0 km/h 11.1 km/h 54% 0.0 mm CLR
19:15 23.8 °C 13.7 °C 1007.3 hPa ENE 14.5 km/h 29.0 km/h 53% 0.0 mm CLR
19:20 23.7 °C 13.6 °C 1007.2 hPa ENE 14.5 km/h 29.0 km/h 53% 0.0 mm CLR
19:25 23.7 °C 13.6 °C 1007.2 hPa East 14.5 km/h 33.8 km/h 53% 0.0 mm CLR
19:30 23.6 °C 13.4 °C 1007.2 hPa ENE 16.1 km/h 24.1 km/h 53% 0.0 mm CLR
19:35 23.8 °C 13.6 °C 1007.2 hPa ENE 16.1 km/h 22.5 km/h 53% 0.0 mm CLR
19:40 23.7 °C 13.3 °C 1007.2 hPa East 11.9 km/h 24.1 km/h 52% 0.0 mm CLR
19:45 23.6 °C 13.2 °C 1007.2 hPa ENE 11.3 km/h 30.6 km/h 52% 0.0 mm CLR
19:50 23.5 °C 13.1 °C 1007.3 hPa ESE 16.1 km/h 20.4 km/h 52% 0.0 mm CLR
19:55 23.6 °C 13.4 °C 1007.3 hPa ENE 16.1 km/h 25.7 km/h 53% 0.0 mm CLR
20:00 23.7 °C 13.3 °C 1007.3 hPa ENE 11.3 km/h 22.5 km/h 52% 0.0 mm CLR
20:05 23.6 °C 13.2 °C 1007.5 hPa ENE 11.3 km/h 27.4 km/h 52% 0.0 mm CLR
20:10 23.5 °C 13.4 °C 1007.5 hPa ENE 12.9 km/h 25.7 km/h 53% 0.0 mm CLR
20:15 23.4 °C 13.3 °C 1007.5 hPa NNE 13.0 km/h 16.7 km/h 53% 0.0 mm CLR
20:20 23.4 °C 13.3 °C 1007.4 hPa NE 11.3 km/h 22.5 km/h 53% 0.0 mm CLR
20:25 23.3 °C 13.2 °C 1007.4 hPa NE 11.3 km/h 19.3 km/h 53% 0.0 mm CLR
20:30 23.2 °C 13.4 °C 1007.4 hPa NE 11.3 km/h 22.5 km/h 54% 0.0 mm CLR
20:35 23.1 °C 13.3 °C 1007.4 hPa NE 11.3 km/h 22.5 km/h 54% 0.0 mm CLR
20:40 22.9 °C 13.7 °C 1007.4 hPa ENE 13.0 km/h 16.7 km/h 56% 0.0 mm CLR
20:45 22.8 °C 13.6 °C 1007.4 hPa NE 12.9 km/h 22.5 km/h 56% 0.0 mm CLR
20:50 22.7 °C 13.7 °C 1007.5 hPa ENE 11.3 km/h 20.9 km/h 57% 0.0 mm CLR
20:54 22.6 °C 13.9 °C 1007.5 hPa NE 11.1 km/h 11.1 km/h 58% 0.0 mm CLR
20:55 22.5 °C 13.8 °C 1007.5 hPa East 11.1 km/h 22.2 km/h 58% 0.0 mm CLR
20:57 22.4 °C 14.0 °C 1007.5 hPa ENE 11.1 km/h 13.7 km/h 59% 0.0 mm CLR
20:58 22.4 °C 14.0 °C 1007.5 hPa NE 10.3 km/h 14.8 km/h 59% 0.0 mm CLR
20:59 22.4 °C 14.0 °C 1007.5 hPa ENE 10.3 km/h 13.0 km/h 59% 0.0 mm CLR
21:00 22.4 °C 14.0 °C 1007.5 hPa ESE 10.3 km/h 13.0 km/h 59% 0.0 mm CLR
21:03 22.3 °C 13.9 °C 1007.4 hPa ESE 10.3 km/h 13.0 km/h 59% 0.0 mm CLR
21:11 22.1 °C 13.9 °C 1007.4 hPa NE 10.0 km/h 14.8 km/h 60% 0.0 mm CLR
21:12 22.1 °C 13.9 °C 1007.4 hPa NE 10.0 km/h 14.8 km/h 60% 0.0 mm CLR
21:16 21.9 °C 14.1 °C 1007.4 hPa NNE 10.0 km/h 14.8 km/h 61% 0.0 mm CLR
21:23 21.8 °C 13.9 °C 1007.3 hPa ESE 8.7 km/h 14.8 km/h 61% 0.0 mm CLR
21:30 21.7 °C 14.1 °C 1007.3 hPa ESE 8.4 km/h 9.3 km/h 62% 0.0 mm CLR
21:37 21.6 °C 14.3 °C 1007.8 hPa ENE 8.4 km/h 13.0 km/h 63% 0.0 mm CLR
21:44 21.5 °C 14.2 °C 1007.8 hPa ESE 8.4 km/h 13.0 km/h 63% 0.0 mm CLR
21:51 21.6 °C 14.3 °C 1008.4 hPa ESE 8.4 km/h 13.0 km/h 63% 0.0 mm CLR
21:58 21.5 °C 14.2 °C 1008.4 hPa SE 8.4 km/h 13.0 km/h 63% 0.0 mm CLR
22:01 21.4 °C 14.3 °C 1008.4 hPa ESE 8.4 km/h 14.8 km/h 64% 0.0 mm CLR
22:09 21.3 °C 14.2 °C 1008.7 hPa SE 10.0 km/h 16.7 km/h 64% 0.0 mm CLR
22:15 21.3 °C 13.9 °C 1008.7 hPa SE 10.0 km/h 13.0 km/h 63% 0.0 mm CLR
22:24 21.3 °C 14.2 °C 1009.0 hPa ESE 8.7 km/h 11.1 km/h 64% 0.0 mm CLR
22:32 21.2 °C 14.1 °C 1009.0 hPa ESE 7.6 km/h 9.3 km/h 64% 0.0 mm CLR
22:34 21.2 °C 14.1 °C 1009.2 hPa East 7.6 km/h 9.3 km/h 64% 0.0 mm CLR
22:35 21.3 °C 13.9 °C 1009.2 hPa ESE 7.6 km/h 7.6 km/h 63% 0.0 mm CLR
22:36 21.2 °C 13.9 °C 1009.2 hPa East 7.6 km/h 7.6 km/h 63% 0.0 mm CLR
22:38 21.2 °C 13.9 °C 1009.2 hPa ESE 6.4 km/h 11.1 km/h 63% 0.0 mm CLR
22:39 21.2 °C 14.1 °C 1009.2 hPa East 6.4 km/h 9.3 km/h 64% 0.0 mm CLR
22:40 21.2 °C 13.9 °C 1009.2 hPa East 6.4 km/h 9.3 km/h 63% 0.0 mm CLR
22:42 21.1 °C 14.0 °C 1009.2 hPa East 6.4 km/h 8.4 km/h 64% 0.0 mm CLR
22:43 21.1 °C 14.0 °C 1009.2 hPa East 6.4 km/h 9.3 km/h 64% 0.0 mm CLR
22:48 21.1 °C 14.0 °C 1009.2 hPa ESE 6.4 km/h 9.3 km/h 64% 0.0 mm CLR
22:55 21.1 °C 14.0 °C 1009.2 hPa ESE 6.4 km/h 9.3 km/h 64% 0.0 mm CLR
22:57 21.1 °C 14.0 °C 1009.2 hPa SE 6.4 km/h 9.3 km/h 64% 0.0 mm CLR
22:58 21.2 °C 14.1 °C 1009.2 hPa ESE 6.9 km/h 9.3 km/h 64% 0.0 mm CLR
23:00 21.2 °C 13.9 °C 1009.2 hPa ESE 6.9 km/h 9.3 km/h 63% 0.0 mm CLR
23:01 21.2 °C 13.9 °C 1009.2 hPa SE 6.9 km/h 9.3 km/h 63% 0.0 mm CLR
23:04 21.2 °C 13.9 °C 1009.1 hPa SE 6.9 km/h 7.4 km/h 63% 0.0 mm CLR
23:10 21.3 °C 13.9 °C 1009.1 hPa ESE 3.2 km/h 4.8 km/h 63% 0.0 mm CLR
23:17 21.2 °C 13.9 °C 1009.1 hPa East 4.7 km/h 3.7 km/h 63% 0.0 mm CLR
23:24 21.1 °C 14.0 °C 1009.0 hPa ENE 3.9 km/h 7.4 km/h 64% 0.0 mm CLR
23:32 21.0 °C 13.9 °C 1009.0 hPa ENE 3.2 km/h 5.6 km/h 64% 0.0 mm CLR
23:39 21.0 °C 13.9 °C 1009.0 hPa NNW 2.9 km/h 5.6 km/h 64% 0.0 mm CLR
23:47 20.9 °C 13.8 °C 1009.0 hPa NNW 2.9 km/h   64% 0.0 mm CLR
23:52 20.9 °C 14.1 °C 1009.0 hPa NNW 2.3 km/h   65% 0.0 mm CLR
23:57 20.8 °C 14.0 °C 1009.0 hPa NNW 2.3 km/h   65% 0.0 mm CLR
Murcia-Puente Tocinos, España
Compliments of Weather Underground - 2.75 mb

La estación de MeteoMurcia.com, publica sus datos en los siguientes proyectos:

Weather Underground PWS IMURCIAP2 Meteoclimatic www.awekas.at

W3Counter
Web Analytics